Kingsport, TN

4:24 AM EST on February 06, 2016 (GMT -0500)
Tri-Cities Regional Tennessee / Virginia

Weather History for KTRI - July, 2013

Change the Weather History Date:

Friday, July 26, 2013

  Actual Average Record
Temperature  
Mean Temperature 72 °F 75 °F  
Max Temperature 87 °F 85 °F 96 °F (1952)
Min Temperature 57 °F 64 °F 57 °F (2013)
Degree Days  
Heating Degree Days 0 0  
Month to date heating degree days 0 0  
Since 1 June heating degree days 0 11  
Since 1 July heating degree days 0 0  
Cooling Degree Days 7 10  
Month to date cooling degree days 269 257  
Year to date cooling degree days 564 536  
Since 1 June cooling degree days 492 463  
Growing Degree Days 20 (Base 50)    
Moisture  
Dew Point 61 °F    
Average Humidity 72    
Maximum Humidity 100    
Minimum Humidity 44    
Precipitation  
Precipitation 0.01 in 0.16 in 0.81 in (2004)
Month to date precipitation 6.44 3.94  
Year to date precipitation 39.50 25.23  
Snow  
Snow 0.00 in 0.00 in - ()
Month to date snowfall 0.0 0.0  
Since 1 June snowfall 0.0 0.0  
Since 1 July snowfall 0.0 0.0  
Snow Depth 0.00 in    
Sea Level Pressure  
Sea Level Pressure 30.02 in    
Wind  
Wind Speed 3 mph (NNW)    
Max Wind Speed 26 mph    
Max Gust Speed 34 mph    
Visibility 10 miles    
Events Rain , Thunderstorm    
T = Trace of Precipitation, MM = Missing Value Source: NWS Daily Summary

Daily Weather History Graph

Daily Weather History Graph

Search for Another Location

Airport or City:

Trip Planner

Search our weather history database for the weather conditions in past years. The results will help you decide how hot, cold, wet, or windy it might be!

Date:

Astronomy

Jul. 26, 2013 Rise Set
Actual Time 6:31 AM EDT 8:40 PM EDT
Civil Twilight 6:02 AM EDT 9:09 PM EDT
Nautical Twilight 5:27 AM EDT 9:44 PM EDT
Astronomical Twilight 4:48 AM EDT 10:22 PM EDT
Moon 11:04 PM EDT (7/26) 10:56 AM EDT (7/26)
Length of Visible Light 15h 06m
Length of Day
14h 08m
Waning Gibbous, 80% of the Moon is Illuminated
Jul 26
Waning Gibbous
Jul 29
Last Quarter
Aug 6
New
Aug 14
First Quarter
Aug 20
Full

Hourly Weather History & Observations

Time (EDT) Temp. Heat Index Dew Point Humidity Pressure Visibility Wind Dir Wind Speed Gust Speed Precip Events Conditions
12:53 AM 62.1 °F - 57.0 °F 84% 30.04 in 10.0 mi Calm Calm - N/A   Clear
1:53 AM 60.1 °F - 57.0 °F 90% 30.03 in 10.0 mi North 3.5 mph - N/A   Clear
2:53 AM 60.1 °F - 57.0 °F 90% 30.02 in 10.0 mi Calm Calm - N/A   Clear
3:53 AM 59.0 °F - 55.9 °F 90% 30.02 in 10.0 mi North 3.5 mph - N/A   Clear
4:53 AM 57.9 °F - 57.0 °F 97% 30.02 in 10.0 mi Calm Calm - N/A   Clear
5:53 AM 59.0 °F - 55.9 °F 90% 30.02 in 10.0 mi Calm Calm - N/A   Clear
6:53 AM 57.9 °F - 55.9 °F 93% 30.03 in 10.0 mi Calm Calm - N/A   Clear
7:53 AM 62.1 °F - 57.9 °F 86% 30.05 in 10.0 mi Calm Calm - N/A   Clear
8:53 AM 66.0 °F - 59.0 °F 78% 30.05 in 10.0 mi East 3.5 mph - N/A   Clear
9:53 AM 70.0 °F - 60.1 °F 71% 30.06 in 10.0 mi Calm Calm - N/A   Clear
10:53 AM 73.9 °F - 62.1 °F 66% 30.06 in 10.0 mi Variable 3.5 mph - N/A   Scattered Clouds
11:53 AM 79.0 °F - 62.1 °F 56% 30.05 in 10.0 mi Variable 4.6 mph - N/A   Scattered Clouds
12:53 PM 80.1 °F 81.7 °F 64.0 °F 58% 30.05 in 10.0 mi Calm Calm - N/A   Scattered Clouds
1:53 PM 82.0 °F 83.4 °F 64.0 °F 54% 30.03 in 10.0 mi Calm Calm - N/A   Mostly Cloudy
2:53 PM 84.0 °F 84.5 °F 62.1 °F 47% 30.01 in 10.0 mi WNW 4.6 mph - N/A   Scattered Clouds
3:53 PM 84.9 °F 85.0 °F 61.0 °F 44% 29.99 in 10.0 mi NW 4.6 mph - N/A   Scattered Clouds
4:53 PM 84.9 °F 85.0 °F 61.0 °F 44% 29.97 in 10.0 mi North 3.5 mph - N/A   Partly Cloudy
5:53 PM 84.9 °F 85.4 °F 62.1 °F 46% 29.96 in 10.0 mi NNW 8.1 mph - N/A   Mostly Cloudy
6:53 PM 82.9 °F 84.0 °F 63.0 °F 51% 29.97 in 10.0 mi NNW 6.9 mph - N/A   Mostly Cloudy
7:53 PM 80.1 °F 81.9 °F 64.9 °F 60% 29.96 in 10.0 mi Calm Calm - N/A   Mostly Cloudy
8:53 PM 77.0 °F - 66.0 °F 69% 29.97 in 10.0 mi SSW 5.8 mph - N/A   Mostly Cloudy
9:10 PM 73.9 °F - 64.0 °F 71% 30.06 in 10.0 mi SSW 17.3 mph 34.5 mph N/A Thunderstorm Thunderstorm
9:53 PM 72.0 °F - 64.9 °F 78% 30.00 in 10.0 mi South 5.8 mph - 0.00 in Rain , Thunderstorm Light Thunderstorms and Rain
10:35 PM 71.1 °F - 64.9 °F 81% 30.08 in 10.0 mi NW 8.1 mph - N/A   Mostly Cloudy
10:53 PM 70.0 °F - 64.9 °F 84% 30.01 in 10.0 mi East 3.5 mph - 0.00 in   Mostly Cloudy
11:53 PM 70.0 °F - 66.0 °F 87% 29.99 in 10.0 mi Calm Calm - N/A   Overcast